Regional Weather Roundup
Issued by NWS Portland, ME

Current Version | Previous Version | Text Only | Print | Product List | Glossary Off
Versions: 1 2 3 4 5 6 7 8 9 10 11 12 13 14 15 16 17 18 19 20 21 22 23 24 25 26 27 28 29 30 31 32 33 34 35 36 37 38 39 40 41 42 43 44 45 46 47 48 49 50
000 ASUS41 KGYX 252305 RWRGYX WEATHER ROUNDUP FOR MAINE AND NEW HAMPSHIRE NATIONAL WEATHER SERVICE GRAY ME 700 PM EDT SAT MAR 25 2017 MEZ002-005-006-010-012-015-018-020-021-024-026-027-029-260000- MAINE CITY SKY/WX TMP DP RH WIND PRES REMARKS PORTLAND CLOUDY 38 30 73 W6 30.30R SANFORD CLOUDY 35 33 92 CALM 30.31R BAR HARBOR CLEAR 40 20 44 NW5 30.27R WISCASSET CLEAR 37 30 75 CALM 30.30R ROCKLAND CLEAR 41 24 51 NW3 30.28R FRYEBURG MOCLDY 34 29 82 CALM 30.31R LEWISTONAUBURN CLEAR 39 21 48 NW8 30.30R AUGUSTA CLEAR 39 20 46 N6 30.29R WATERVILLE CLEAR 39 20 46 N8 30.26R BANGOR PTCLDY 40 15 36 NW8 30.27R GREENVILLE N/A 30 4 33 VRB7 30.22R MILLINOCKET CLEAR 36 3 25 NW10 30.28R HOULTON CLEAR 29 6 38 N9 30.25R PRESQUE ISLE CLEAR 27 5 39 N12 30.29R WCI 17 FRENCHVILLE CLEAR 25 0 33 NW17 30.27R WCI 12 CARIBOU CLEAR 27 3 35 NW13 30.27R WCI 16 $$ NHZ002-005-008-009-011-012-014-260000- NEW HAMPSHIRE CITY SKY/WX TMP DP RH WIND PRES REMARKS PORTSMOUTH MOCLDY 36 34 94 CALM 30.31R ROCHESTER PTCLDY 36 34 92 CALM 30.29R FOG NASHUA CLOUDY 36 34 92 CALM 30.33R MANCHESTER CLOUDY 37 33 85 W3 30.31R CONCORD CLOUDY 37 30 75 N10 30.32R LACONIA CLOUDY 37 27 67 VRB6 30.31R PLYMOUTH FAIR 36 26 67 W6 30.32R BERLIN CLEAR 33 17 51 CALM 30.31R WHITEFIELD CLEAR 33 21 61 W3 30.32R JAFFREY CLOUDY 36 32 85 VRB3 30.30R KEENE MOCLDY 35 33 92 CALM 30.33R LEBANON CLOUDY 38 29 70 VRB7 30.34R MT WASHINGTON PTCLDY 18 -22 16 NW47 N/A WCI -6 $$ VTZ005-007-008-260000- VERMONT CITY SKY/WX TMP DP RH WIND PRES REMARKS ST JOHNSBURY N/A 35 22 58 MISG 30.34R MONTPELIER MOCLDY 32 27 81 NW6 30.38R BURLINGTON PTCLDY 32 18 56 NW9 30.42R $$ MAZ007-012-024-CTZ003-RIZ002-NYZ038-NYZ072-260000- SOUTHERN NEW ENGLAND AND NY CITY SKY/WX TMP DP RH WIND PRES REMARKS BOSTON CLOUDY 38 35 89 N5 30.33R WORCESTER CLOUDY 35 33 92 CALM 30.29R FOG NANTUCKET CLOUDY 38 34 85 N13 30.31R PROVIDENCE CLOUDY 40 36 86 NE8 30.33R HARTFORD CLOUDY 37 35 92 N8 30.34R ALBANY CLOUDY 38 32 79 N6 30.38R NEW YORK CITY CLOUDY 51 38 60 E6 30.28R $$ ANZ081-ANZ082-ANZ150-NHZ014-MEZ023>029-260000- COASTAL MARINE OBSERVATIONS STATION/POSITION TIME TEMP WIND PRES WAVE AIR SEA DIR/SP/G HT/PER (UTC) (F) (DEG/KT/KT) (MB) (FT/S) MOUNT DESERT ROC 2200 38 1024.3R MATINICUS ROCK 2200 38 260/ 16/ 17 1024.4R ISLE OF SHOALS 2200 35 270/ 7/ 7 1026.4R JEFFREYS LEDGE 2206 40 N/A 3/ 8 CASHES LEDGE BUO 2250 38 40 1026.2R 3/ 8 GEORGES BANK BUO 2150 40 41 1023.5 7/ 8 $$ .............KEY.............. WCI - WIND CHILL TC - TEMPERATURE IN CELSIUS VSB - VISIBILITY IN MILES HX - HEAT INDEX FAIR- INDICATES FEW OR NO CLOUDS BELOW 12,000 FT, WITH NO SIGNIFICANT WEATHER AND/OR OBSTRUCTIONS TO VISIBILITY.

USA.gov is the U.S. government's official web portal to all federal, state and local government web resources and services.